Flag Weather past 2 weeks in Iasi, Romania

Now
27 °F

Overcast.


Feels Like: 27 °F
Forecast: 8 / 31 °F
Wind: 2 mph from West

Location: Iasi Airport

Current Time: Nov 27, 2014 at 7:56:26 AM

Latest Report: Nov 27, 2014 at 7:30 AM


Visibility: N/A

Pressure: 30.33 "Hg

Humidity: 80%

Dew point: 21 °F

Location of IasiLocation

Historic Weather in Iasi — Graph

°F

Iasi temperature yesterday

Maximum temperature yesterday: 27 °F (at 1:00 AM)
Minimum temperature yesterday: 25 °F (at 3:00 AM)
Average temperature yesterday: 26 °F

Past Weeks' High & Low Weather Summary

 TemperatureHumidityPressure
High54 °F (Nov 12, 12:30 PM)100% (Nov 12, 6:00 AM)30.54 "Hg (Nov 12, 6:00 AM)
Low25 °F (Nov 26, 3:00 AM)69% (Nov 26, 11:00 AM)30.01 "Hg (Nov 20, 1:00 AM)
Average37 °F91%30.23 "Hg
* Reported Nov 12 6:00 AM — Nov 27 6:30 AM, Iasi, Weather by CustomWeather, © 2014

Note: Actual official high and low records may vary slightly from our data, if they occured in-between our weather recording intervals... More about our weather records

Advertising

Iasi weather history for previous 24 hours

 ConditionsComfort  
Time TempWeatherWind HumidityBarometerVisibility
6:30 AM
Nov 27
27 °FOvercast.2 mph80%30.30 "HgN/A
6:00 AM27 °FOvercast.2 mph80%30.30 "HgN/A
5:30 AM27 °FOvercast.5 mph80%30.30 "HgN/A
4:00 AM27 °FOvercast.2 mph80%30.30 "HgN/A
3:00 AM27 °FOvercast.2 mph80%30.33 "HgN/A
2:00 AM27 °FOvercast.5 mph80%30.33 "HgN/A
1:00 AM27 °FOvercast.2 mph80%30.33 "HgN/A
12:00 AM27 °FOvercast.2 mph80%30.33 "HgN/A
11:00 PM
Nov 26
27 °FOvercast.2 mph80%30.36 "HgN/A
10:00 PM27 °FOvercast.5 mph80%30.36 "HgN/A
9:00 PM27 °FOvercast.2 mph80%30.36 "HgN/A
8:30 PM27 °FOvercast.2 mph74%30.36 "HgN/A
8:00 PM27 °FOvercast.2 mph80%30.36 "HgN/A
7:30 PM27 °FOvercast.2 mph74%30.36 "HgN/A
7:00 PM27 °FOvercast.2 mph74%30.36 "HgN/A
6:30 PM27 °FOvercast.5 mph74%30.36 "HgN/A
6:00 PM27 °FOvercast.5 mph74%30.36 "HgN/A
5:30 PM27 °FOvercast.5 mph74%30.36 "HgN/A
5:00 PM27 °FOvercast.5 mph74%30.36 "HgN/A
4:30 PM27 °FOvercast.5 mph74%30.36 "HgN/A
3:30 PM27 °FOvercast.5 mph74%30.36 "HgN/A
3:00 PM27 °FPartly sunny.7 mph74%30.36 "HgN/A
2:30 PM27 °FOvercast.7 mph74%30.36 "HgN/A
2:00 PM27 °FPartly sunny.5 mph74%30.36 "HgN/A
1:30 PM27 °FOvercast.7 mph74%30.36 "HgN/A
1:00 PM27 °FOvercast.5 mph74%30.36 "HgN/A
12:30 PM27 °FBroken clouds.5 mph69%30.39 "HgN/A
12:00 PM27 °FPartly sunny.7 mph69%30.39 "HgN/A
11:30 AM27 °FOvercast.7 mph69%30.39 "HgN/A
11:00 AM27 °FPartly sunny.7 mph69%30.39 "HgN/A
10:30 AM25 °FBroken clouds.7 mph74%30.42 "HgN/A
10:00 AM25 °FOvercast.7 mph74%30.42 "HgN/A
9:30 AM25 °FPartly sunny.9 mph74%30.39 "HgN/A
9:00 AM25 °FOvercast.9 mph74%30.39 "HgN/A
8:30 AM25 °FOvercast.9 mph74%30.39 "HgN/A
8:00 AM25 °FOvercast.9 mph74%30.42 "HgN/A
7:30 AM25 °FOvercast.12 mph74%30.39 "HgN/A
7:00 AM25 °FOvercast.9 mph74%30.39 "HgN/A
Weather by CustomWeather, © 2014

See weather overviewHow to use our weather pages